This is the latest recevied weather packets stored in our database for station/object KB1QVF. If no packets are shown the sender has not sent any weather packets the latest 10 day(s).
| Time | Temp. | Humidity | Pressure | Rain* | Wind** | Luminosity | Snow |
|---|---|---|---|---|---|---|---|
| 1777994855 | 23.33° C | 45% | 1012.8 hPa | 0 mm | - | 769 W/m² | - |
| 1777994552 | 22.78° C | 50% | 1012.8 hPa | 0 mm | - | 758 W/m² | - |
| 1777994246 | 21.67° C | 50% | 1013 hPa | 0 mm | - | 713 W/m² | - |
| 1777993944 | 21.67° C | 50% | 1012.6 hPa | 0 mm | - | 706 W/m² | - |
| 1777993641 | 21.11° C | 53% | 1013 hPa | 0 mm | - | 762 W/m² | - |
| 1777993338 | 20.56° C | 54% | 1012.8 hPa | 0 mm | - | 917 W/m² | - |
| 1777993038 | 20° C | 56% | 1013 hPa | 0 mm | - | 620 W/m² | - |
| 1777992737 | 19.44° C | 59% | 1013 hPa | 0 mm | - | 465 W/m² | - |
| 1777992434 | 19.44° C | 58% | 1013 hPa | 0 mm | - | 373 W/m² | - |
| 1777992132 | 18.89° C | 58% | 1012.9 hPa | 0 mm | - | 347 W/m² | - |
| 1777991829 | 18.89° C | 59% | 1012.8 hPa | 0 mm | - | 299 W/m² | - |
| 1777991526 | 18.89° C | 61% | 1012.9 hPa | 0 mm | - | 286 W/m² | - |
| 1777991223 | 18.33° C | 61% | 1012.8 hPa | 0 mm | - | 296 W/m² | - |
| 1777990920 | 18.33° C | 62% | 1012.9 hPa | 0 mm | - | 217 W/m² | - |
| 1777990618 | 18.33° C | 61% | 1013 hPa | 0 mm | - | 251 W/m² | - |
| 1777990011 | 18.33° C | 61% | 1013.2 hPa | 0 mm | - | 143 W/m² | - |
| 1777989708 | 18.33° C | 61% | 1013.2 hPa | 0 mm | - | 139 W/m² | - |
| 1777989404 | 18.33° C | 61% | 1013.1 hPa | 0 mm | - | 179 W/m² | - |
| 1777989101 | 18.33° C | 61% | 1013.2 hPa | 0 mm | - | 278 W/m² | - |
| 1777988796 | 17.78° C | 63% | 1012.9 hPa | 0 mm | - | 340 W/m² | - |
| 1777988494 | 17.78° C | 63% | 1013.1 hPa | 0 mm | - | 341 W/m² | - |
| 1777988191 | 17.78° C | 64% | 1013 hPa | 0 mm | - | 278 W/m² | - |
| 1777987887 | 17.22° C | 65% | 1013 hPa | 0 mm | - | 478 W/m² | - |
| 1777987583 | 17.22° C | 64% | 1013.2 hPa | 0 mm | - | 240 W/m² | - |
| 1777987281 | 17.22° C | 64% | 1013.2 hPa | 0 mm | - | 466 W/m² | - |
* Rain latest hour (hover to see other rain measurements)
** Current wind speed in m/s (hover to see current wind gust speed)